This is the latest recevied weather packets stored in our database for station/object KJ4EWA. If no packets are shown the sender has not sent any weather packets the latest 10 day(s).
| Time | Temp. | Humidity | Pressure | Rain* | Wind** | Luminosity | Snow |
|---|---|---|---|---|---|---|---|
| 1777553073 | 19.44° C | 99% | 1015.8 hPa | 0 mm | - | 114 W/m² | - |
| 1777552768 | 18.89° C | 99% | 1016 hPa | 0 mm | - | 84 W/m² | - |
| 1777552464 | 18.89° C | 99% | 1016.2 hPa | 0 mm | - | 66 W/m² | - |
| 1777552161 | 18.33° C | 99% | 1015.9 hPa | 0 mm | - | 26 W/m² | - |
| 1777551858 | 18.33° C | 99% | 1016 hPa | 0 mm | - | 23 W/m² | - |
| 1777551556 | 18.89° C | 99% | 1015.8 hPa | 0 mm | - | 40 W/m² | - |
| 1777551252 | 18.89° C | 99% | 1015.5 hPa | 0 mm | - | 44 W/m² | - |
| 1777550949 | 18.33° C | 99% | 1015.4 hPa | 0 mm | - | 27 W/m² | - |
| 1777550646 | 18.33° C | 99% | 1015.1 hPa | 0 mm | - | 26 W/m² | - |
| 1777550342 | 18.33° C | 99% | 1014.9 hPa | 0 mm | - | 26 W/m² | - |
| 1777550038 | 18.33° C | 99% | 1014.8 hPa | 0 mm | - | 23 W/m² | - |
| 1777549735 | 18.33° C | 99% | 1014.6 hPa | 0 mm | - | 23 W/m² | - |
| 1777549435 | 18.33° C | 99% | 1014.7 hPa | 0 mm | - | 18 W/m² | - |
| 1777549132 | 18.33° C | 99% | 1014.3 hPa | 0 mm | - | 12 W/m² | - |
| 1777548828 | 18.33° C | 99% | 1014.2 hPa | 0 mm | - | 9 W/m² | - |
| 1777548526 | 18.33° C | 99% | 1014.4 hPa | 0 mm | - | 5 W/m² | - |
| 1777548222 | 18.33° C | 99% | 1014.2 hPa | 0 mm | - | 1 W/m² | - |
| 1777547919 | 18.33° C | 99% | 1014.4 hPa | 0 mm | - | 0 W/m² | - |
| 1777547615 | 18.89° C | 99% | 1014.4 hPa | 0 mm | - | 0 W/m² | - |
| 1777547312 | 18.89° C | 99% | 1013.9 hPa | 0 mm | - | 0 W/m² | - |
| 1777547009 | 18.89° C | 99% | 1014 hPa | 0 mm | - | 0 W/m² | - |
| 1777546707 | 18.89° C | 99% | 1014.1 hPa | 0 mm | - | 0 W/m² | - |
| 1777546403 | 18.89° C | 99% | 1013.9 hPa | 0 mm | - | 0 W/m² | - |
| 1777546100 | 18.89° C | 99% | 1014.2 hPa | 0 mm | - | 0 W/m² | - |
| 1777545796 | 18.89° C | 99% | 1014 hPa | 0 mm | - | 0 W/m² | - |
* Rain latest hour (hover to see other rain measurements)
** Current wind speed in m/s (hover to see current wind gust speed)